sat.trackr.live / text

‹ back to catalog

STARLINK-34982

NORAD 65243 · 2025-179J

PAYLOAD ACTIVE UNKNOWN

§ Identity

Operator
Country
US
Launch date
2025-08-18
Launch site
AFWTR
Launch vehicle
Mass (kg)
RCS (m²)

Purposes: comms

External: N2YO · Heavens-Above · Gunter

§ Orbital elements

Epoch: 2026-05-25T02:29:19.916736Z

Period
95.64 min
Inclination
97.4468°
Eccentricity
0.0002661
Mean motion
15.05658281 rev/d
Perigee alt
547.6 km
Apogee alt
551.3 km
Semi-major
6,927.6 km
B*
2.6643e-4
RAAN
187.8774°
Arg perigee
159.1038°
Mean anomaly
201.0299°
Rev number
4,347

§ Raw data

STARLINK-349821 65243U 25179J   26145.10370274  .00003789  00000+0  26643-3 0  99962 65243  97.4468 187.8774 0002661 159.1038 201.0299 15.05658281 43476

JSON: /api/v1/satellites/65243 · /tle

For live sub-satellite position, see the globe view (requires WebGL).

§ Visibility from observer

Set your observer location to see the next 7 days of passes ≥ 10°. The values pass through the URL so the page stays shareable.

No JS? Fill the form by hand. The geolocation button needs JavaScript.